Location: Prague
(50.0830°N, 14.4670°E)
Time: 06:11:57
(UTC+02:00)

DOVE 4 - Pass Details

Date: 11 April 2023
Orbit: 584 x 791 km, 97.8° (Epoch: 29 May)

Event Time Altitude Azimuth Distance (km) Brightness Sun altitude
Rises 23:58:42 0° 13° (NNE) 3,036 ? -30.1°
Reaches altitude 10° 00:01:00 10° 14° (NNE) 2,084 ? -30.2°
Enters shadow 00:03:39 35° 17° (NNE) 1,051 ? -30.4°
